Data supplied by UK-AIR on 30/3/2019
All Data GMT hour ending 
Status: R =Ratified P=Provisional,P*=As supplied
,,London Hillingdon,,,,,,,,,,,,,,,,,,,,,,,
Date,time,"Nitric oxide",status,unit,"Nitrogen dioxide",status,unit,"Nitrogen oxides as nitrogen dioxide",status,unit,"Ozone",status,unit
 
01-01-2018,01:00,7.14496,R,ugm-3,15.25142,R,ugm-3,26.20687,R,ugm-3,56.74440,R,ugm-3
01-01-2018,02:00,5.05579,R,ugm-3,33.22010,R,ugm-3,40.97221,R,ugm-3,47.43114,R,ugm-3
01-01-2018,03:00,3.60382,R,ugm-3,20.64914,R,ugm-3,26.17491,R,ugm-3,59.67143,R,ugm-3
01-01-2018,04:00,2.91439,R,ugm-3,18.63812,R,ugm-3,23.10679,R,ugm-3,59.22240,R,ugm-3
01-01-2018,05:00,2.66369,R,ugm-3,18.06373,R,ugm-3,22.14800,R,ugm-3,58.87315,R,ugm-3
01-01-2018,06:00,4.51261,R,ugm-3,20.83768,R,ugm-3,27.75691,R,ugm-3,55.72992,R,ugm-3
01-01-2018,07:00,8.68050,R,ugm-3,36.45118,R,ugm-3,49.76110,R,ugm-3,43.95529,R,ugm-3
01-01-2018,08:00,17.98775,R,ugm-3,62.73700,R,ugm-3,90.31783,R,ugm-3,29.58625,R,ugm-3
01-01-2018,09:00,36.69626,R,ugm-3,89.99629,R,ugm-3,146.26310,R,ugm-3,12.27356,R,ugm-3
01-01-2018,10:00,97.67912,R,ugm-3,118.25662,R,ugm-3,268.02918,R,ugm-3,2.59441,R,ugm-3
01-01-2018,11:00,76.77698,R,ugm-3,109.79733,R,ugm-3,227.52038,R,ugm-3,3.49248,R,ugm-3
01-01-2018,12:00,71.48093,R,ugm-3,108.37788,R,ugm-3,217.98044,R,ugm-3,6.18667,R,ugm-3
01-01-2018,13:00,26.85627,R,ugm-3,70.61563,R,ugm-3,111.79468,R,ugm-3,21.15442,R,ugm-3
01-01-2018,14:00,2.09962,R,ugm-3,17.92191,R,ugm-3,21.14127,R,ugm-3,53.08562,R,ugm-3
01-01-2018,15:00,1.22216,R,ugm-3,13.22695,R,ugm-3,15.10091,R,ugm-3,59.82111,R,ugm-3
01-01-2018,16:00,1.47286,R,ugm-3,15.81479,R,ugm-3,18.07315,R,ugm-3,58.22455,R,ugm-3
01-01-2018,17:00,2.41299,R,ugm-3,27.12517,R,ugm-3,30.82503,R,ugm-3,48.99444,R,ugm-3
01-01-2018,18:00,20.65144,R,ugm-3,72.26752,R,ugm-3,103.93262,R,ugm-3,20.15657,R,ugm-3
01-01-2018,19:00,4.41859,R,ugm-3,35.79510,R,ugm-3,42.57019,R,ugm-3,44.00519,R,ugm-3
01-01-2018,20:00,1.15949,R,ugm-3,15.38445,R,ugm-3,17.16231,R,ugm-3,60.41982,R,ugm-3
01-01-2018,21:00,0.53274,R,ugm-3,8.00400,R,ugm-3,8.82085,R,ugm-3,67.50455,R,ugm-3
01-01-2018,22:00,0.56408,R,ugm-3,7.52449,R,ugm-3,8.38940,R,ugm-3,67.25509,R,ugm-3
01-01-2018,23:00,0.34471,R,ugm-3,6.99793,R,ugm-3,7.52649,R,ugm-3,66.60649,R,ugm-3
01-01-2018,24:00,0.34471,R,ugm-3,6.27884,R,ugm-3,6.80740,R,ugm-3,66.00778,R,ugm-3
02-01-2018,01:00,0.70913,R,ugm-3,13.46016,R,ugm-3,14.54748,R,ugm-3,60.60276,R,ugm-3
02-01-2018,02:00,2.79481,R,ugm-3,37.50680,R,ugm-3,41.79211,R,ugm-3,38.51701,R,ugm-3
02-01-2018,03:00,1.59555,R,ugm-3,25.11718,R,ugm-3,27.56365,R,ugm-3,42.45852,R,ugm-3
02-01-2018,04:00,1.31398,R,ugm-3,19.04083,R,ugm-3,21.05557,R,ugm-3,45.40218,R,ugm-3
02-01-2018,05:00,13.92192,R,ugm-3,52.39570,R,ugm-3,73.74234,R,ugm-3,20.05679,R,ugm-3
02-01-2018,06:00,38.04281,R,ugm-3,76.04132,R,ugm-3,134.37281,R,ugm-3,5.83742,R,ugm-3
02-01-2018,07:00,123.26370,R,ugm-3,112.38004,R,ugm-3,301.38174,R,ugm-3,1.49678,R,ugm-3
02-01-2018,08:00,132.74311,R,ugm-3,119.71422,R,ugm-3,323.25082,R,ugm-3,1.59656,R,ugm-3
02-01-2018,09:00,168.37696,R,ugm-3,124.46269,R,ugm-3,382.63709,R,ugm-3,0.99785,R,ugm-3
02-01-2018,10:00,124.92181,R,ugm-3,115.29294,R,ugm-3,306.83705,R,ugm-3,1.69635,R,ugm-3
02-01-2018,11:00,156.95786,R,ugm-3,125.03157,R,ugm-3,365.69693,R,ugm-3,1.34710,R,ugm-3
02-01-2018,12:00,94.13717,R,ugm-3,107.32023,R,ugm-3,251.66189,R,ugm-3,3.84172,R,ugm-3
02-01-2018,13:00,77.21188,R,ugm-3,98.72172,R,ugm-3,217.11162,R,ugm-3,6.93506,R,ugm-3
02-01-2018,14:00,46.83395,R,ugm-3,79.98045,R,ugm-3,151.79150,R,ugm-3,18.11098,R,ugm-3
02-01-2018,15:00,39.41936,R,ugm-3,78.76385,R,ugm-3,139.20602,R,ugm-3,18.90926,R,ugm-3
02-01-2018,16:00,32.94332,R,ugm-3,73.09337,R,ugm-3,123.60575,R,ugm-3,18.80947,R,ugm-3
02-01-2018,17:00,36.16569,R,ugm-3,74.08631,R,ugm-3,129.53960,R,ugm-3,17.71184,R,ugm-3
02-01-2018,18:00,36.60369,R,ugm-3,72.74478,R,ugm-3,128.86965,R,ugm-3,21.70324,R,ugm-3
02-01-2018,19:00,44.20599,R,ugm-3,86.35475,R,ugm-3,154.13633,R,ugm-3,14.01979,R,ugm-3
02-01-2018,20:00,25.27844,R,ugm-3,60.87138,R,ugm-3,99.63112,R,ugm-3,24.99614,R,ugm-3
02-01-2018,21:00,16.39345,R,ugm-3,45.87842,R,ugm-3,71.01469,R,ugm-3,39.06583,R,ugm-3
02-01-2018,22:00,10.26155,R,ugm-3,31.35376,R,ugm-3,47.08791,R,ugm-3,45.85121,R,ugm-3
02-01-2018,23:00,8.29058,R,ugm-3,29.06412,R,ugm-3,41.77616,R,ugm-3,43.40648,R,ugm-3
02-01-2018,24:00,3.28495,R,ugm-3,15.68375,R,ugm-3,20.72059,R,ugm-3,58.72347,R,ugm-3
03-01-2018,01:00,1.54082,R,ugm-3,13.56002,R,ugm-3,15.92258,R,ugm-3,65.45896,R,ugm-3
03-01-2018,02:00,1.58247,R,ugm-3,20.37472,R,ugm-3,22.80113,R,ugm-3,60.33666,R,ugm-3
03-01-2018,03:00,0.62466,R,ugm-3,9.07343,R,ugm-3,10.03122,R,ugm-3,73.89079,R,ugm-3
03-01-2018,04:00,0.56219,R,ugm-3,7.35404,R,ugm-3,8.21605,R,ugm-3,78.53080,R,ugm-3
03-01-2018,05:00,0.68712,R,ugm-3,8.30890,R,ugm-3,9.36248,R,ugm-3,77.73252,R,ugm-3
03-01-2018,06:00,1.65534,R,ugm-3,15.47028,R,ugm-3,18.00843,R,ugm-3,71.44606,R,ugm-3
03-01-2018,07:00,4.18520,R,ugm-3,27.83224,R,ugm-3,34.24946,R,ugm-3,61.86670,R,ugm-3
03-01-2018,08:00,5.99671,R,ugm-3,35.70684,R,ugm-3,44.90166,R,ugm-3,55.03143,R,ugm-3
03-01-2018,09:00,8.24548,R,ugm-3,36.98778,R,ugm-3,49.63067,R,ugm-3,53.08562,R,ugm-3
03-01-2018,10:00,8.08931,R,ugm-3,36.70179,R,ugm-3,49.10522,R,ugm-3,52.28734,R,ugm-3
03-01-2018,11:00,6.37150,R,ugm-3,28.39691,R,ugm-3,38.16641,R,ugm-3,57.77552,R,ugm-3
03-01-2018,12:00,2.87342,R,ugm-3,15.36998,R,ugm-3,19.77584,R,ugm-3,66.35703,R,ugm-3
03-01-2018,13:00,2.65479,R,ugm-3,14.55879,R,ugm-3,18.62941,R,ugm-3,66.95574,R,ugm-3
03-01-2018,14:00,3.15452,R,ugm-3,16.13317,R,ugm-3,20.97003,R,ugm-3,66.65638,R,ugm-3
03-01-2018,15:00,3.81041,R,ugm-3,23.10470,R,ugm-3,28.94724,R,ugm-3,61.51745,R,ugm-3
03-01-2018,16:00,7.68328,R,ugm-3,39.80827,R,ugm-3,51.58915,R,ugm-3,50.54110,R,ugm-3
03-01-2018,17:00,13.43013,R,ugm-3,51.72776,R,ugm-3,72.32034,R,ugm-3,42.40863,R,ugm-3
03-01-2018,18:00,14.74191,R,ugm-3,52.53469,R,ugm-3,75.13864,R,ugm-3,41.95959,R,ugm-3
03-01-2018,19:00,10.11945,R,ugm-3,45.43535,R,ugm-3,60.95162,R,ugm-3,47.94669,R,ugm-3
03-01-2018,20:00,7.12109,R,ugm-3,41.72118,R,ugm-3,52.64004,R,ugm-3,49.69293,R,ugm-3
03-01-2018,21:00,12.89917,R,ugm-3,52.68519,R,ugm-3,72.46364,R,ugm-3,38.21766,R,ugm-3
03-01-2018,22:00,11.58739,R,ugm-3,50.30193,R,ugm-3,68.06901,R,ugm-3,35.97249,R,ugm-3
03-01-2018,23:00,9.55726,R,ugm-3,48.16031,R,ugm-3,62.81456,R,ugm-3,36.62110,R,ugm-3
03-01-2018,24:00,6.71507,R,ugm-3,42.53482,R,ugm-3,52.83111,R,ugm-3,39.96389,R,ugm-3
04-01-2018,01:00,3.74166,R,ugm-3,19.37533,R,ugm-3,25.11246,R,ugm-3,60.73580,R,ugm-3
04-01-2018,02:00,2.78546,R,ugm-3,23.00306,R,ugm-3,27.27404,R,ugm-3,60.60276,R,ugm-3
04-01-2018,03:00,2.96215,R,ugm-3,22.63678,R,ugm-3,27.17868,R,ugm-3,57.22670,R,ugm-3
04-01-2018,04:00,4.80180,R,ugm-3,27.39744,R,ugm-3,34.76010,R,ugm-3,48.39573,R,ugm-3
04-01-2018,05:00,17.39873,R,ugm-3,56.90867,R,ugm-3,83.58636,R,ugm-3,24.54711,R,ugm-3
04-01-2018,06:00,56.93564,R,ugm-3,93.46196,R,ugm-3,180.76206,R,ugm-3,8.63140,R,ugm-3
04-01-2018,07:00,133.76445,R,ugm-3,123.85475,R,ugm-3,328.95738,R,ugm-3,1.99570,R,ugm-3
04-01-2018,08:00,157.21221,R,ugm-3,130.24355,R,ugm-3,371.29890,R,ugm-3,1.04774,R,ugm-3
04-01-2018,09:00,172.80247,R,ugm-3,126.98507,R,ugm-3,391.94516,R,ugm-3,0.99785,R,ugm-3
04-01-2018,10:00,105.98260,R,ugm-3,96.02683,R,ugm-3,258.53122,R,ugm-3,8.23226,R,ugm-3
04-01-2018,11:00,41.96899,R,ugm-3,70.34980,R,ugm-3,134.70135,R,ugm-3,19.05894,R,ugm-3
04-01-2018,12:00,21.91991,R,ugm-3,47.97366,R,ugm-3,81.58372,R,ugm-3,37.21981,R,ugm-3
04-01-2018,13:00,15.37200,R,ugm-3,42.56472,R,ugm-3,66.13479,R,ugm-3,44.20476,R,ugm-3
04-01-2018,14:00,7.85749,R,ugm-3,29.67367,R,ugm-3,41.72166,R,ugm-3,58.32433,R,ugm-3
04-01-2018,15:00,7.82631,R,ugm-3,28.62480,R,ugm-3,40.62497,R,ugm-3,62.96434,R,ugm-3
04-01-2018,16:00,5.83076,R,ugm-3,30.68328,R,ugm-3,39.62365,R,ugm-3,58.62369,R,ugm-3
04-01-2018,17:00,4.11583,R,ugm-3,29.78434,R,ugm-3,36.09519,R,ugm-3,56.62799,R,ugm-3
04-01-2018,18:00,10.78846,R,ugm-3,60.32113,R,ugm-3,76.86321,R,ugm-3,35.82282,R,ugm-3
04-01-2018,19:00,20.45442,R,ugm-3,74.63383,R,ugm-3,105.99685,R,ugm-3,26.49292,R,ugm-3
04-01-2018,20:00,18.05352,R,ugm-3,61.62650,R,ugm-3,89.30819,R,ugm-3,33.02884,R,ugm-3
04-01-2018,21:00,13.34526,R,ugm-3,53.49216,R,ugm-3,73.95462,R,ugm-3,37.12002,R,ugm-3
04-01-2018,22:00,36.94892,R,ugm-3,87.44046,R,ugm-3,144.09468,R,ugm-3,12.27356,R,ugm-3
04-01-2018,23:00,12.90874,R,ugm-3,54.39990,R,ugm-3,74.19303,R,ugm-3,36.27185,R,ugm-3
04-01-2018,24:00,18.17825,R,ugm-3,64.05777,R,ugm-3,91.93069,R,ugm-3,25.64475,R,ugm-3
05-01-2018,01:00,10.21005,R,ugm-3,55.29467,R,ugm-3,70.94986,R,ugm-3,25.67801,R,ugm-3
05-01-2018,02:00,6.43316,R,ugm-3,42.99932,R,ugm-3,52.86336,R,ugm-3,33.59428,R,ugm-3
05-01-2018,03:00,6.38128,R,ugm-3,38.28753,R,ugm-3,48.07202,R,ugm-3,33.07873,R,ugm-3
05-01-2018,04:00,4.57584,R,ugm-3,24.01644,R,ugm-3,31.03263,R,ugm-3,48.69508,R,ugm-3
05-01-2018,05:00,8.34235,R,ugm-3,35.09020,R,ugm-3,47.88164,R,ugm-3,42.75787,R,ugm-3
05-01-2018,06:00,35.17485,R,ugm-3,79.95369,R,ugm-3,133.88771,R,ugm-3,14.91786,R,ugm-3
05-01-2018,07:00,79.12785,R,ugm-3,108.41850,R,ugm-3,229.74617,R,ugm-3,8.78108,R,ugm-3
05-01-2018,08:00,94.06938,R,ugm-3,117.15985,R,ugm-3,261.39755,R,ugm-3,6.38624,R,ugm-3
05-01-2018,09:00,93.13553,R,ugm-3,119.40086,R,ugm-3,262.20668,R,ugm-3,6.03699,R,ugm-3
05-01-2018,10:00,71.87498,R,ugm-3,109.21106,R,ugm-3,219.41783,R,ugm-3,10.87657,R,ugm-3
05-01-2018,11:00,60.79335,R,ugm-3,99.21570,R,ugm-3,192.43086,R,ugm-3,16.06539,R,ugm-3
05-01-2018,12:00,23.19050,R,ugm-3,56.11174,R,ugm-3,91.67001,R,ugm-3,42.65809,R,ugm-3
05-01-2018,13:00,20.91814,R,ugm-3,53.88445,R,ugm-3,85.95848,R,ugm-3,44.00519,R,ugm-3
05-01-2018,14:00,22.75470,R,ugm-3,53.44822,R,ugm-3,88.33828,R,ugm-3,42.55830,R,ugm-3
05-01-2018,15:00,23.06599,R,ugm-3,56.63583,R,ugm-3,92.00318,R,ugm-3,40.11357,R,ugm-3
05-01-2018,16:00,31.50172,R,ugm-3,75.54297,R,ugm-3,123.84494,R,ugm-3,25.54496,R,ugm-3
05-01-2018,17:00,29.97644,R,ugm-3,86.02063,R,ugm-3,131.98387,R,ugm-3,19.60775,R,ugm-3
05-01-2018,18:00,77.04226,R,ugm-3,108.23703,R,ugm-3,226.36685,R,ugm-3,6.03699,R,ugm-3
05-01-2018,19:00,72.59093,R,ugm-3,111.39741,R,ugm-3,222.70195,R,ugm-3,2.39484,R,ugm-3
05-01-2018,20:00,161.11949,R,ugm-3,134.34077,R,ugm-3,381.38721,R,ugm-3,1.04774,R,ugm-3
05-01-2018,21:00,173.35287,R,ugm-3,125.67355,R,ugm-3,391.47757,R,ugm-3,0.99785,R,ugm-3
05-01-2018,22:00,180.45009,R,ugm-3,113.55379,R,ugm-3,390.24008,R,ugm-3,1.39699,R,ugm-3
05-01-2018,23:00,312.18458,R,ugm-3,125.41282,R,ugm-3,604.08916,R,ugm-3,1.49678,R,ugm-3
05-01-2018,24:00,284.85403,R,ugm-3,96.82931,R,ugm-3,533.59940,R,ugm-3,1.49678,R,ugm-3
06-01-2018,01:00,184.54910,R,ugm-3,89.44546,R,ugm-3,372.41680,R,ugm-3,1.33047,R,ugm-3
06-01-2018,02:00,131.67872,R,ugm-3,78.84918,R,ugm-3,280.75374,R,ugm-3,1.46351,R,ugm-3
06-01-2018,03:00,79.98923,R,ugm-3,70.33808,R,ugm-3,192.98652,R,ugm-3,1.14753,R,ugm-3
06-01-2018,04:00,39.12449,R,ugm-3,57.07514,R,ugm-3,117.06519,R,ugm-3,0.89807,R,ugm-3
06-01-2018,05:00,33.49976,R,ugm-3,56.00752,R,ugm-3,107.37310,R,ugm-3,0.94796,R,ugm-3
06-01-2018,06:00,20.97620,R,ugm-3,56.63355,R,ugm-3,88.79661,R,ugm-3,0.94796,R,ugm-3
06-01-2018,07:00,16.22159,R,ugm-3,51.90376,R,ugm-3,76.77652,R,ugm-3,0.99785,R,ugm-3
06-01-2018,08:00,8.70124,R,ugm-3,47.42386,R,ugm-3,60.76557,R,ugm-3,2.19527,R,ugm-3
06-01-2018,09:00,9.32275,R,ugm-3,44.19039,R,ugm-3,58.48508,R,ugm-3,5.43828,R,ugm-3
06-01-2018,10:00,12.74110,R,ugm-3,40.27929,R,ugm-3,59.81537,R,ugm-3,9.62925,R,ugm-3
06-01-2018,11:00,13.11401,R,ugm-3,37.66457,R,ugm-3,57.77243,R,ugm-3,16.21506,R,ugm-3
06-01-2018,12:00,9.44706,R,ugm-3,31.59963,R,ugm-3,46.08492,R,ugm-3,25.84432,R,ugm-3
06-01-2018,13:00,9.41598,R,ugm-3,33.88026,R,ugm-3,48.31790,R,ugm-3,25.84432,R,ugm-3
06-01-2018,14:00,5.03429,R,ugm-3,27.86602,R,ugm-3,35.58516,R,ugm-3,33.22841,R,ugm-3
06-01-2018,15:00,3.29404,R,ugm-3,24.12049,R,ugm-3,29.17128,R,ugm-3,36.02239,R,ugm-3
06-01-2018,16:00,2.29961,R,ugm-3,22.17701,R,ugm-3,25.70303,R,ugm-3,29.08733,R,ugm-3
06-01-2018,17:00,1.49164,R,ugm-3,16.52690,R,ugm-3,18.81405,R,ugm-3,29.53636,R,ugm-3
06-01-2018,18:00,1.27411,R,ugm-3,17.19301,R,ugm-3,19.14662,R,ugm-3,27.14152,R,ugm-3
06-01-2018,19:00,1.30519,R,ugm-3,17.00283,R,ugm-3,19.00409,R,ugm-3,32.62970,R,ugm-3
06-01-2018,20:00,1.05658,R,ugm-3,15.76868,R,ugm-3,17.38874,R,ugm-3,36.92045,R,ugm-3
06-01-2018,21:00,4.38170,R,ugm-3,15.18371,R,ugm-3,21.90221,R,ugm-3,39.46497,R,ugm-3
06-01-2018,22:00,0.68367,R,ugm-3,11.30438,R,ugm-3,12.35266,R,ugm-3,50.39143,R,ugm-3
06-01-2018,23:00,0.46614,R,ugm-3,11.25784,R,ugm-3,11.97258,R,ugm-3,52.83616,R,ugm-3
06-01-2018,24:00,0.40399,R,ugm-3,9.78530,R,ugm-3,10.40474,R,ugm-3,53.28519,R,ugm-3
07-01-2018,01:00,0.28955,R,ugm-3,7.58656,R,ugm-3,8.03053,R,ugm-3,50.49121,R,ugm-3
07-01-2018,02:00,0.04136,R,ugm-3,7.96710,R,ugm-3,8.03053,R,ugm-3,52.35386,R,ugm-3
07-01-2018,03:00,0.03102,R,ugm-3,5.26396,R,ugm-3,5.31153,R,ugm-3,54.53250,R,ugm-3
07-01-2018,04:00,0.03102,R,ugm-3,4.50517,R,ugm-3,4.55274,R,ugm-3,53.93379,R,ugm-3
07-01-2018,05:00,0.00000,R,ugm-3,4.22077,R,ugm-3,4.22077,R,ugm-3,54.48261,R,ugm-3
07-01-2018,06:00,0.18614,R,ugm-3,5.35809,R,ugm-3,5.64350,R,ugm-3,52.13766,R,ugm-3
07-01-2018,07:00,0.37228,R,ugm-3,6.77996,R,ugm-3,7.35078,R,ugm-3,46.99874,R,ugm-3
07-01-2018,08:00,0.80661,R,ugm-3,9.76567,R,ugm-3,11.00246,R,ugm-3,37.81852,R,ugm-3
07-01-2018,09:00,1.42708,R,ugm-3,11.37521,R,ugm-3,13.56338,R,ugm-3,32.23056,R,ugm-3
07-01-2018,10:00,4.09510,R,ugm-3,13.21235,R,ugm-3,19.49142,R,ugm-3,35.02454,R,ugm-3
07-01-2018,11:00,5.14990,R,ugm-3,16.14776,R,ugm-3,24.04416,R,ugm-3,37.81852,R,ugm-3
07-01-2018,12:00,5.52219,R,ugm-3,16.99967,R,ugm-3,25.46690,R,ugm-3,40.36303,R,ugm-3
07-01-2018,13:00,5.67730,R,ugm-3,17.28349,R,ugm-3,25.98857,R,ugm-3,44.45422,R,ugm-3
07-01-2018,14:00,5.86344,R,ugm-3,19.03733,R,ugm-3,28.02781,R,ugm-3,45.70153,R,ugm-3
07-01-2018,15:00,4.40534,R,ugm-3,18.52244,R,ugm-3,25.27720,R,ugm-3,47.74712,R,ugm-3
07-01-2018,16:00,4.12613,R,ugm-3,22.55481,R,ugm-3,28.88145,R,ugm-3,45.75142,R,ugm-3
07-01-2018,17:00,3.16440,R,ugm-3,23.88717,R,ugm-3,28.73918,R,ugm-3,46.10067,R,ugm-3
07-01-2018,18:00,3.56770,R,ugm-3,25.11833,R,ugm-3,30.58873,R,ugm-3,48.49551,R,ugm-3
07-01-2018,19:00,4.03306,R,ugm-3,28.48330,R,ugm-3,34.66723,R,ugm-3,45.55185,R,ugm-3
07-01-2018,20:00,4.74660,R,ugm-3,33.08014,R,ugm-3,40.35815,R,ugm-3,40.86196,R,ugm-3
07-01-2018,21:00,4.49841,R,ugm-3,32.36993,R,ugm-3,39.26739,R,ugm-3,40.06368,R,ugm-3
07-01-2018,22:00,4.25022,R,ugm-3,29.90502,R,ugm-3,36.42193,R,ugm-3,39.66454,R,ugm-3
07-01-2018,23:00,3.47463,R,ugm-3,25.87755,R,ugm-3,31.20525,R,ugm-3,40.91185,R,ugm-3
07-01-2018,24:00,4.06408,R,ugm-3,24.97374,R,ugm-3,31.20525,R,ugm-3,38.16776,R,ugm-3
08-01-2018,01:00,4.41855,R,ugm-3,22.95359,R,ugm-3,29.72861,R,ugm-3,36.52131,R,ugm-3
08-01-2018,02:00,4.50114,R,ugm-3,26.48780,R,ugm-3,33.38946,R,ugm-3,31.46554,R,ugm-3
08-01-2018,03:00,5.20316,R,ugm-3,26.48440,R,ugm-3,34.46247,R,ugm-3,27.93980,R,ugm-3
08-01-2018,04:00,5.32704,R,ugm-3,25.58437,R,ugm-3,33.75239,R,ugm-3,27.19141,R,ugm-3
08-01-2018,05:00,2.88032,R,ugm-3,18.87414,R,ugm-3,23.29057,R,ugm-3,34.22626,R,ugm-3
08-01-2018,06:00,1.79633,R,ugm-3,15.13964,R,ugm-3,17.89397,R,ugm-3,38.96604,R,ugm-3
08-01-2018,07:00,4.42888,R,ugm-3,25.21001,R,ugm-3,32.00086,R,ugm-3,28.88776,R,ugm-3
08-01-2018,08:00,8.64096,R,ugm-3,37.92369,R,ugm-3,51.17298,R,ugm-3,16.01549,R,ugm-3
08-01-2018,09:00,16.66249,R,ugm-3,47.39991,R,ugm-3,72.94871,R,ugm-3,6.38624,R,ugm-3
08-01-2018,10:00,16.94123,R,ugm-3,45.07898,R,ugm-3,71.05517,R,ugm-3,6.93506,R,ugm-3
08-01-2018,11:00,16.16695,R,ugm-3,42.81048,R,ugm-3,67.59945,R,ugm-3,7.73334,R,ugm-3
08-01-2018,12:00,19.75961,R,ugm-3,44.26058,R,ugm-3,74.55822,R,ugm-3,6.08689,R,ugm-3
08-01-2018,13:00,14.61839,R,ugm-3,40.97177,R,ugm-3,63.38632,R,ugm-3,8.08259,R,ugm-3
08-01-2018,14:00,16.84832,R,ugm-3,42.57048,R,ugm-3,68.40421,R,ugm-3,6.88517,R,ugm-3
08-01-2018,15:00,12.85304,R,ugm-3,37.66661,R,ugm-3,57.37433,R,ugm-3,9.23011,R,ugm-3
08-01-2018,16:00,18.33493,R,ugm-3,41.14313,R,ugm-3,69.25630,R,ugm-3,7.53377,R,ugm-3
08-01-2018,17:00,12.97692,R,ugm-3,40.88504,R,ugm-3,60.78270,R,ugm-3,7.13463,R,ugm-3
08-01-2018,18:00,18.24202,R,ugm-3,45.26203,R,ugm-3,73.23274,R,ugm-3,4.09119,R,ugm-3
08-01-2018,19:00,14.77325,R,ugm-3,40.02425,R,ugm-3,62.67624,R,ugm-3,6.48603,R,ugm-3
08-01-2018,20:00,13.00789,R,ugm-3,39.55941,R,ugm-3,59.50456,R,ugm-3,5.68775,R,ugm-3
08-01-2018,21:00,17.43677,R,ugm-3,44.79255,R,ugm-3,71.52855,R,ugm-3,2.89377,R,ugm-3
08-01-2018,22:00,16.87929,R,ugm-3,43.84848,R,ugm-3,69.72969,R,ugm-3,2.74409,R,ugm-3
08-01-2018,23:00,26.97589,R,ugm-3,46.54524,R,ugm-3,87.90769,R,ugm-3,1.74624,R,ugm-3
08-01-2018,24:00,23.16644,R,ugm-3,42.68192,R,ugm-3,78.20329,R,ugm-3,2.64430,R,ugm-3
09-01-2018,01:00,17.31455,R,ugm-3,41.55832,R,ugm-3,68.10692,R,ugm-3,2.59441,R,ugm-3
09-01-2018,02:00,14.63491,R,ugm-3,42.95787,R,ugm-3,65.39776,R,ugm-3,2.92703,R,ugm-3
09-01-2018,03:00,14.81012,R,ugm-3,39.52330,R,ugm-3,62.23183,R,ugm-3,3.24301,R,ugm-3
09-01-2018,04:00,14.53185,R,ugm-3,36.26426,R,ugm-3,58.54612,R,ugm-3,4.49033,R,ugm-3
09-01-2018,05:00,31.04251,R,ugm-3,41.28452,R,ugm-3,88.88236,R,ugm-3,3.14323,R,ugm-3
09-01-2018,06:00,70.64953,R,ugm-3,54.07982,R,ugm-3,162.40759,R,ugm-3,1.49678,R,ugm-3
09-01-2018,07:00,152.46075,R,ugm-3,80.79144,R,ugm-3,314.56134,R,ugm-3,0.84817,R,ugm-3
09-01-2018,08:00,140.03139,R,ugm-3,71.68692,R,ugm-3,286.39872,R,ugm-3,0.89807,R,ugm-3
09-01-2018,09:00,142.78316,R,ugm-3,67.70386,R,ugm-3,286.63498,R,ugm-3,0.79828,R,ugm-3
09-01-2018,10:00,107.56661,R,ugm-3,67.36119,R,ugm-3,232.29436,R,ugm-3,1.09764,R,ugm-3
09-01-2018,11:00,71.17515,R,ugm-3,48.26510,R,ugm-3,157.39880,R,ugm-3,1.34710,R,ugm-3
09-01-2018,12:00,118.94474,R,ugm-3,63.90177,R,ugm-3,246.28116,R,ugm-3,1.19742,R,ugm-3
09-01-2018,13:00,165.35391,R,ugm-3,70.28375,R,ugm-3,323.82287,R,ugm-3,1.14753,R,ugm-3
09-01-2018,14:00,182.60662,R,ugm-3,75.30028,R,ugm-3,355.29318,R,ugm-3,1.44688,R,ugm-3
09-01-2018,15:00,169.49703,R,ugm-3,75.64972,R,ugm-3,335.54154,R,ugm-3,1.19742,R,ugm-3
09-01-2018,16:00,179.26738,R,ugm-3,85.75992,R,ugm-3,360.63274,R,ugm-3,1.39699,R,ugm-3
09-01-2018,17:00,182.23559,R,ugm-3,85.74499,R,ugm-3,365.16900,R,ugm-3,0.99785,R,ugm-3
09-01-2018,18:00,168.44579,R,ugm-3,74.61545,R,ugm-3,332.89539,R,ugm-3,0.84817,R,ugm-3
09-01-2018,19:00,168.32212,R,ugm-3,78.34904,R,ugm-3,336.43935,R,ugm-3,0.79828,R,ugm-3
09-01-2018,20:00,122.00571,R,ugm-3,72.43911,R,ugm-3,259.51192,R,ugm-3,0.64860,R,ugm-3
09-01-2018,21:00,84.71760,R,ugm-3,67.75961,R,ugm-3,197.65812,R,ugm-3,1.09764,R,ugm-3
09-01-2018,22:00,71.51526,R,ugm-3,68.34579,R,ugm-3,178.00099,R,ugm-3,1.14753,R,ugm-3
09-01-2018,23:00,55.12828,R,ugm-3,57.51282,R,ugm-3,142.04167,R,ugm-3,2.14538,R,ugm-3
09-01-2018,24:00,49.40829,R,ugm-3,49.13061,R,ugm-3,124.88893,R,ugm-3,1.94581,R,ugm-3
10-01-2018,01:00,21.48308,R,ugm-3,34.98005,R,ugm-3,67.92031,R,ugm-3,4.45706,R,ugm-3
10-01-2018,02:00,9.09533,R,ugm-3,27.56089,R,ugm-3,41.50686,R,ugm-3,9.77893,R,ugm-3
10-01-2018,03:00,8.95128,R,ugm-3,26.22524,R,ugm-3,39.95035,R,ugm-3,10.12818,R,ugm-3
10-01-2018,04:00,15.64931,R,ugm-3,36.04817,R,ugm-3,60.04344,R,ugm-3,4.44043,R,ugm-3
10-01-2018,05:00,28.76757,R,ugm-3,48.10160,R,ugm-3,92.21125,R,ugm-3,8.93076,R,ugm-3
10-01-2018,06:00,21.35961,R,ugm-3,53.61161,R,ugm-3,86.36256,R,ugm-3,17.81162,R,ugm-3
10-01-2018,07:00,63.15284,R,ugm-3,91.83452,R,ugm-3,188.66753,R,ugm-3,9.72904,R,ugm-3
10-01-2018,08:00,75.74637,R,ugm-3,96.81566,R,ugm-3,212.95847,R,ugm-3,6.68560,R,ugm-3
10-01-2018,09:00,86.27185,R,ugm-3,98.08140,R,ugm-3,230.36305,R,ugm-3,5.48818,R,ugm-3
10-01-2018,10:00,62.59725,R,ugm-3,88.11124,R,ugm-3,184.09234,R,ugm-3,9.42968,R,ugm-3
10-01-2018,11:00,26.45258,R,ugm-3,59.24506,R,ugm-3,99.80512,R,ugm-3,22.05249,R,ugm-3
10-01-2018,12:00,24.75493,R,ugm-3,61.09343,R,ugm-3,99.05045,R,ugm-3,19.65765,R,ugm-3
10-01-2018,13:00,28.98364,R,ugm-3,55.17550,R,ugm-3,99.61645,R,ugm-3,26.89206,R,ugm-3
10-01-2018,14:00,27.59464,R,ugm-3,59.66360,R,ugm-3,101.97480,R,ugm-3,25.89421,R,ugm-3
10-01-2018,15:00,35.95946,R,ugm-3,71.83617,R,ugm-3,126.97325,R,ugm-3,20.60560,R,ugm-3
10-01-2018,16:00,11.88360,R,ugm-3,53.00073,R,ugm-3,71.22199,R,ugm-3,27.98969,R,ugm-3
10-01-2018,17:00,98.95797,R,ugm-3,109.90125,R,ugm-3,261.63470,R,ugm-3,1.39699,R,ugm-3
10-01-2018,18:00,185.56935,R,ugm-3,123.36349,R,ugm-3,407.89920,R,ugm-3,0.99785,R,ugm-3
10-01-2018,19:00,261.56265,R,ugm-3,136.97548,R,ugm-3,538.03262,R,ugm-3,0.94796,R,ugm-3
10-01-2018,20:00,219.27556,R,ugm-3,107.85836,R,ugm-3,444.07619,R,ugm-3,0.94796,R,ugm-3
10-01-2018,21:00,252.21011,R,ugm-3,115.56336,R,ugm-3,502.28013,R,ugm-3,1.09764,R,ugm-3
10-01-2018,22:00,225.17106,R,ugm-3,90.84751,R,ugm-3,436.10499,R,ugm-3,1.39699,R,ugm-3
10-01-2018,23:00,211.40460,R,ugm-3,91.10802,R,ugm-3,415.25723,R,ugm-3,1.34710,R,ugm-3
10-01-2018,24:00,232.30122,R,ugm-3,91.98948,R,ugm-3,448.17971,R,ugm-3,1.29721,R,ugm-3
11-01-2018,01:00,151.07152,R,ugm-3,67.92124,R,ugm-3,299.56101,R,ugm-3,1.06437,R,ugm-3
11-01-2018,02:00,163.84912,R,ugm-3,67.41271,R,ugm-3,318.64453,R,ugm-3,1.39699,R,ugm-3
11-01-2018,03:00,128.21769,R,ugm-3,51.42524,R,ugm-3,248.02296,R,ugm-3,1.14753,R,ugm-3
11-01-2018,04:00,57.09863,R,ugm-3,41.87579,R,ugm-3,129.42580,R,ugm-3,0.84817,R,ugm-3
11-01-2018,05:00,10.63088,R,ugm-3,39.53766,R,ugm-3,55.83812,R,ugm-3,0.94796,R,ugm-3
11-01-2018,06:00,44.12587,R,ugm-3,41.47515,R,ugm-3,109.13387,R,ugm-3,0.74839,R,ugm-3
11-01-2018,07:00,189.44542,R,ugm-3,79.10730,R,ugm-3,369.58622,R,ugm-3,0.79828,R,ugm-3
11-01-2018,08:00,46.77588,R,ugm-3,45.98060,R,ugm-3,117.70262,R,ugm-3,0.59871,R,ugm-3
11-01-2018,09:00,63.26146,R,ugm-3,46.73889,R,ugm-3,143.73844,R,ugm-3,0.84817,R,ugm-3
11-01-2018,10:00,45.20436,R,ugm-3,42.31677,R,ugm-3,111.62916,R,ugm-3,1.19742,R,ugm-3
11-01-2018,11:00,33.09440,R,ugm-3,37.10919,R,ugm-3,87.85323,R,ugm-3,1.79613,R,ugm-3
11-01-2018,12:00,34.51185,R,ugm-3,36.58364,R,ugm-3,89.50107,R,ugm-3,2.69420,R,ugm-3
11-01-2018,13:00,27.88681,R,ugm-3,30.49893,R,ugm-3,73.25811,R,ugm-3,3.64215,R,ugm-3
11-01-2018,14:00,22.95654,R,ugm-3,30.00771,R,ugm-3,65.20725,R,ugm-3,3.44258,R,ugm-3
11-01-2018,15:00,17.59488,R,ugm-3,30.97833,R,ugm-3,57.95677,R,ugm-3,2.29506,R,ugm-3
11-01-2018,16:00,27.42460,R,ugm-3,38.59937,R,ugm-3,80.64983,R,ugm-3,1.54667,R,ugm-3
11-01-2018,17:00,29.82810,R,ugm-3,38.72762,R,ugm-3,84.46340,R,ugm-3,0.79828,R,ugm-3
11-01-2018,18:00,38.14792,R,ugm-3,41.88413,R,ugm-3,100.37679,R,ugm-3,0.89807,R,ugm-3
11-01-2018,19:00,28.71879,R,ugm-3,41.32307,R,ugm-3,85.35794,R,ugm-3,0.79828,R,ugm-3
11-01-2018,20:00,30.72171,R,ugm-3,42.53635,R,ugm-3,89.64231,R,ugm-3,0.69850,R,ugm-3
11-01-2018,21:00,32.66300,R,ugm-3,43.65579,R,ugm-3,93.73837,R,ugm-3,0.74839,R,ugm-3
11-01-2018,22:00,21.63154,R,ugm-3,43.80962,R,ugm-3,76.97751,R,ugm-3,0.64860,R,ugm-3
11-01-2018,23:00,11.09310,R,ugm-3,41.60673,R,ugm-3,58.61590,R,ugm-3,0.84817,R,ugm-3
11-01-2018,24:00,10.47681,R,ugm-3,39.63266,R,ugm-3,55.69688,R,ugm-3,0.69850,R,ugm-3
12-01-2018,01:00,7.50588,R,ugm-3,37.05286,R,ugm-3,48.56172,R,ugm-3,0.79828,R,ugm-3
12-01-2018,02:00,3.69142,R,ugm-3,35.06909,R,ugm-3,40.72918,R,ugm-3,2.66093,R,ugm-3
12-01-2018,03:00,1.99952,R,ugm-3,24.14434,R,ugm-3,27.21023,R,ugm-3,6.98495,R,ugm-3
12-01-2018,04:00,7.32131,R,ugm-3,32.05674,R,ugm-3,43.28259,R,ugm-3,1.34710,R,ugm-3
12-01-2018,05:00,8.27493,R,ugm-3,31.58144,R,ugm-3,44.26949,R,ugm-3,0.69850,R,ugm-3
12-01-2018,06:00,14.76567,R,ugm-3,31.68609,R,ugm-3,54.32647,R,ugm-3,0.74839,R,ugm-3
12-01-2018,07:00,35.65294,R,ugm-3,33.58992,R,ugm-3,88.25701,R,ugm-3,0.69850,R,ugm-3
12-01-2018,08:00,94.83867,R,ugm-3,46.37019,R,ugm-3,191.78746,R,ugm-3,0.84817,R,ugm-3
12-01-2018,09:00,157.03906,R,ugm-3,74.50100,R,ugm-3,315.29088,R,ugm-3,0.69850,R,ugm-3
12-01-2018,10:00,147.28757,R,ugm-3,68.72820,R,ugm-3,294.56599,R,ugm-3,0.94796,R,ugm-3
12-01-2018,11:00,151.99413,R,ugm-3,76.92601,R,ugm-3,309.98042,R,ugm-3,0.99785,R,ugm-3
12-01-2018,12:00,131.87590,R,ugm-3,79.62339,R,ugm-3,281.83029,R,ugm-3,1.34710,R,ugm-3
12-01-2018,13:00,115.91052,R,ugm-3,83.98935,R,ugm-3,261.71633,R,ugm-3,1.44688,R,ugm-3
12-01-2018,14:00,122.77040,R,ugm-3,89.77835,R,ugm-3,278.02367,R,ugm-3,1.34710,R,ugm-3
12-01-2018,15:00,116.40271,R,ugm-3,91.36485,R,ugm-3,269.84651,R,ugm-3,1.69635,R,ugm-3